LiveATC.Net - Listen to live air traffic control over the Internet!


ICAO: EPRZ  IATA: RZE   Airport: Rzeszow-Jasionka Airport
City: Jasionka
Country: Poland   Continent: Europe
EPRZ METAR Weather: EPRZ 250300Z 05004KT CAVOK 14/11 Q1023
EPRZ Flight Activity (FlightAware)
EPRZ Webcam:  (Airport Webcams) 

EPRZ Del/Twr/EPWW Radar
Feed Status: UP   Listeners: 1
Listen in your browser - HTML5 player (in browser, HTML5)
Click here to listen with your own player (launches your MP3 player)
EPRZ Del/Twr/EPWW Radar Audio Archives
FacilityFrequency
EPWW Radar120.950
EPWW Radar134.175
Rzeszow Delivery121.800
Rzeszow Tower126.800

NOTICE

Unauthorized use prohibited. See LiveATC.net Terms of Service


Airport/ARTCC Code
Frequency Search
(e.g., 124.400, 128.75)
Site-wide search
 


Browse LiveATC Feeds
Top 50 LiveATC Feeds
LiveATC Feed Map
Bad Weather Areas

LiveATC FAQ
Offer LiveATC feed
Contact LiveATC.net
Press Inquiries

LiveATC on iPhone
LiveATC on Android

Windows Phone
Windows 8/10

LiveATC Mobile
(Mobile browser)

ATC Audio Archives
Interesting Recordings

LiveATC Forums


Home Page
About LiveATC.net
Make a Donation
Terms of Use
Privacy Policy

Canadian Air Freqs

AIRMETs/SIGMETs

FAA Airport Status
Nat'l Airspace Status
Arrival Demand Charts


Server Software By:
Icecast.org
Liquidsoap